Location: Ehingen
(48.2869°N, 9.7112°E)
Time: 02:12:31
(UTC+01:00)

ISS - Pass Details

Date: 13 January 2018
Orbit: 401 x 406 km, 51.6° (Epoch: 17 January)

Event Time Altitude Azimuth Distance (km) Brightness Sun altitude
Exits shadow 05:34:43 30° 117° (ESE) 751 -2.0 -24.9°
Drops below altitude 10° 05:36:32 10° 115° (ESE) 1,461 -0.1 -24.6°
Sets 05:38:36 0° 115° (ESE) 2,320 1.2 -24.2°
